Вернуться в каталог

CONNECTA IOT-8

АктивенСвязьSSO
NORAD 62695·PAYLOAD·🇹🇷 Turkey

Запущен Jan 14, 2025 с Vandenberg Space Force Base

Loading…

Ближайшие Пролёты (ближайшие 24 часа)

TLE

СвежийSource: Space-Track

Эпоха: Sep 13, 2026, 22:59 UTC

1 62695U 25009CQ  26256.95779127  .00001777  00000-0  17468-3 0  9993
2 62695  97.7017 333.0210 0004084  75.5996 284.5677 14.93380059 90549

Отслеживайте CONNECTA IOT-8 в реальном времени с AllMySat

Download on the App Store